Location: Chakepay
(13.3931°S, 72.1925°W)
Time: 07:22:15
(UTC+00:00)

Centaur D-1AR AC-48 - Pass Details

Date: 15 November 2019
Orbit: 640 x 36148 km, 21.5° (Epoch: 13 December)

Event Time Altitude Azimuth Distance (km) Brightness Sun altitude
Rises 00:48:54 0° 275° (W) 2,999 5.9 -26.2°
Reaches altitude 10° 00:50:29 10° 271° (W) 2,262 5.2 -26.6°
Maximum altitude 00:54:48 65° 187° (S) 1,318 3.2 -27.5°
Drops below altitude 10° 01:12:09 10° 106° (ESE) 8,284 6.9 -31.1°
Sets 01:30:23 0° 102° (ESE) 14,385 8.1 -34.9°
